Find Kosmos-272

NORAD ID: 3818 Int'l Des: 1969-024 Owner: OKB10 Country: SU operational
LEOCIRCULAR

实时位置

正在加载3D地球...

关于 Kosmos-272

正在加载描述...

即将过境

Passes for default location (London). Set your location on the main map for personalized predictions.

高度历史

Loading altitude history...

两行轨道根数

1 3818U 69024A 26129.54871926 -.00000212 00000-0 -49198-3 0 9994
2 3818 73.9906 314.6022 0018928 159.0385 257.0027 13.17948740748762
Epoch: May 9, 2026 • Age: 7 hours

当前状态

高度 1202.4 km
速度 7.26 km/s
星下点 68.26°N, 176.09°W
类型 other

Most Searched